Storm Lake, IA

8:49 AM CDT on April 19, 2018 (GMT -0500)
Storm Lake Municipal

Weather History for KSLB - February, 2014

Change the Weather History Date:

Thursday, February 6, 2014

  Actual Average Record
Temperature  
Mean Temperature -4 °F -  
Max Temperature 5 °F 29 °F 46 °F (2009)
Min Temperature -13 °F 14 °F -13 °F (2014)
Degree Days  
Heating Degree Days 69    
Moisture  
Dew Point -12 °F    
Average Humidity 70    
Maximum Humidity 78    
Minimum Humidity 61    
Precipitation  
Precipitation 0.00 in - - ()
Sea Level Pressure  
Sea Level Pressure 30.42 in    
Wind  
Wind Speed 13 mph (West)    
Max Wind Speed 21 mph    
Max Gust Speed 25 mph    
Visibility 10 miles    
Events Snow    
Averages and records for this station are not official NWS values.
T = Trace of Precipitation, MM = Missing Value Source: NWS Daily Summary

Daily Weather History Graph

Daily Weather History Graph

Search for Another Location

Airport or City:

Astronomy

Feb. 06, 2014 Rise Set
Actual Time 7:29 AM CST 5:41 PM CST
Civil Twilight 6:59 AM CST 6:10 PM CST
Nautical Twilight 6:26 AM CST 6:44 PM CST
Astronomical Twilight 5:53 AM CST 7:17 PM CST
Moon 11:13 AM CST (2/6) 12:46 AM CST (2/6)
Length of Visible Light 11h 10m
Length of Day
10h 11m
Waxing Crescent, 49% of the Moon is Illuminated
Feb 6
Waxing Crescent
Feb 6
First Quarter
Feb 14
Full
Feb 22
Last Quarter
Mar 1
New

Hourly Weather History & Observations

Time (CST) Temp. Windchill Dew Point Humidity Pressure Visibility Wind Dir Wind Speed Gust Speed Precip Events Conditions
12:15 AM -11.2 °F -30.1 °F -16.6 °F 77% 30.52 in 10.0 mi WNW 10.4 mph - N/A   Clear
12:35 AM -11.2 °F -30.1 °F -18.4 °F 70% 30.52 in 8.0 mi WNW 10.4 mph - N/A   Clear
12:55 AM -11.2 °F -32.1 °F -16.6 °F 77% 30.51 in 10.0 mi WNW 12.7 mph - N/A   Clear
1:15 AM -11.2 °F -31.1 °F -16.6 °F 77% 30.51 in 10.0 mi West 11.5 mph - N/A   Clear
1:35 AM -9.4 °F -29.8 °F -16.6 °F 71% 30.50 in 10.0 mi WNW 12.7 mph - N/A   Clear
1:55 AM -9.4 °F -30.6 °F -14.8 °F 77% 30.50 in 9.0 mi West 13.8 mph - N/A   Clear
2:15 AM -11.2 °F -31.1 °F -16.6 °F 77% 30.50 in 10.0 mi West 11.5 mph - N/A   Clear
2:35 AM -11.2 °F -31.1 °F -16.6 °F 77% 30.50 in 10.0 mi West 11.5 mph - N/A   Partly Cloudy
2:50 AM -11.2 °F -31.1 °F -16.6 °F 77% 30.50 in 10.0 mi West 11.5 mph - N/A   Partly Cloudy
3:15 AM -11.2 °F -31.1 °F -18.4 °F 70% 30.49 in 10.0 mi West 11.5 mph - N/A   Clear
3:35 AM -13.0 °F -33.4 °F -18.4 °F 77% 30.49 in 10.0 mi West 11.5 mph - N/A   Partly Cloudy
3:55 AM -11.2 °F -30.1 °F -18.4 °F 70% 30.48 in 10.0 mi West 10.4 mph - N/A   Clear
4:15 AM -11.2 °F -31.1 °F -18.4 °F 70% 30.48 in 10.0 mi West 11.5 mph - N/A   Clear
4:35 AM -11.2 °F -32.1 °F -18.4 °F 70% 30.48 in 10.0 mi WNW 12.7 mph - N/A   Clear
4:55 AM -11.2 °F -32.1 °F -16.6 °F 77% 30.48 in 10.0 mi WNW 12.7 mph - N/A   Clear
5:15 AM -11.2 °F -31.1 °F -16.6 °F 77% 30.48 in 10.0 mi West 11.5 mph - N/A   Clear
5:40 AM -11.2 °F -30.1 °F -18.4 °F 70% 30.48 in 10.0 mi West 10.4 mph - N/A   Clear
5:55 AM -11.2 °F -30.1 °F -18.4 °F 70% 30.48 in 10.0 mi West 10.4 mph - N/A   Clear
6:15 AM -11.2 °F -31.1 °F -18.4 °F 70% 30.47 in 10.0 mi WNW 11.5 mph - N/A   Clear
6:35 AM -11.2 °F -30.1 °F -18.4 °F 70% 30.48 in 10.0 mi West 10.4 mph - N/A   Clear
6:55 AM -13.0 °F -33.4 °F -20.2 °F 70% 30.48 in 10.0 mi West 11.5 mph - N/A   Clear
7:15 AM -11.2 °F -31.1 °F -18.4 °F 70% 30.48 in - West 11.5 mph - N/A   Mostly Cloudy
7:35 AM -13.0 °F -34.3 °F -18.4 °F 77% 30.48 in 9.0 mi West 12.7 mph - N/A   Scattered Clouds
7:55 AM -13.0 °F -34.3 °F -18.4 °F 77% 30.48 in 10.0 mi West 12.7 mph - N/A   Clear
8:15 AM -11.2 °F -32.1 °F -16.6 °F 77% 30.48 in 9.0 mi West 12.7 mph - N/A   Partly Cloudy
8:35 AM -9.4 °F -29.8 °F -14.8 °F 77% 30.48 in 10.0 mi West 12.7 mph - N/A   Clear
8:55 AM -7.6 °F -29.8 °F -14.8 °F 71% 30.48 in 10.0 mi West 16.1 mph - N/A   Clear
9:15 AM -7.6 °F -30.5 °F -13.0 °F 77% 30.49 in 9.0 mi West 17.3 mph - N/A   Scattered Clouds
9:35 AM -5.8 °F -27.5 °F -13.0 °F 71% 30.49 in 8.0 mi West 16.1 mph - N/A   Mostly Cloudy
9:55 AM -5.8 °F -28.2 °F -11.2 °F 77% 30.48 in 9.0 mi West 17.3 mph - N/A   Mostly Cloudy
10:15 AM -4.0 °F -25.8 °F -9.4 °F 78% 30.48 in 10.0 mi West 17.3 mph - N/A   Partly Cloudy
10:35 AM -2.2 °F -25.2 °F -7.6 °F 78% 30.48 in 9.0 mi West 20.7 mph - N/A   Partly Cloudy
10:55 AM -2.2 °F -23.5 °F -9.4 °F 71% 30.47 in 10.0 mi West 17.3 mph - N/A   Clear
11:15 AM -2.2 °F -22.2 °F -7.6 °F 78% 30.47 in 10.0 mi West 15.0 mph - N/A   Clear
11:35 AM -0.4 °F -20.5 °F -7.6 °F 72% 30.46 in 10.0 mi West 16.1 mph - N/A   Clear
11:55 AM 1.4 °F -17.6 °F -5.8 °F 72% 30.45 in 10.0 mi West 15.0 mph - N/A   Clear
12:15 PM 1.4 °F -18.8 °F -5.8 °F 72% 30.44 in 10.0 mi West 17.3 mph - N/A   Clear
12:35 PM 3.2 °F -16.5 °F -5.8 °F 66% 30.42 in 10.0 mi WNW 17.3 mph 24.2 mph N/A   Clear
12:55 PM 3.2 °F -17.1 °F -5.8 °F 66% 30.42 in 10.0 mi West 18.4 mph 25.3 mph N/A   Partly Cloudy
1:15 PM 3.2 °F -16.5 °F -5.8 °F 66% 30.41 in 10.0 mi West 17.3 mph 25.3 mph N/A   Partly Cloudy
1:35 PM 5.0 °F -13.0 °F -5.8 °F 61% 30.40 in 10.0 mi West 15.0 mph 21.9 mph N/A   Partly Cloudy
1:55 PM 5.0 °F -14.7 °F -5.8 °F 61% 30.39 in 10.0 mi West 18.4 mph - N/A   Clear
2:15 PM 5.0 °F -13.6 °F -5.8 °F 61% 30.38 in 10.0 mi West 16.1 mph - N/A   Clear
2:35 PM 5.0 °F -13.6 °F -5.8 °F 61% 30.37 in 10.0 mi West 16.1 mph - N/A   Clear
2:55 PM 5.0 °F -14.2 °F -5.8 °F 61% 30.37 in 10.0 mi West 17.3 mph - N/A   Clear
3:15 PM 5.0 °F -14.7 °F -5.8 °F 61% 30.36 in 10.0 mi West 18.4 mph - N/A   Clear
3:35 PM 5.0 °F -15.2 °F -5.8 °F 61% 30.36 in 10.0 mi West 19.6 mph - N/A   Clear
3:55 PM 5.0 °F -14.2 °F -5.8 °F 61% 30.36 in - West 17.3 mph 25.3 mph N/A   Clear
4:15 PM 5.0 °F -14.7 °F -5.8 °F 61% 30.35 in 10.0 mi West 18.4 mph - N/A   Clear
4:35 PM 5.0 °F -13.6 °F -5.8 °F 61% 30.35 in 10.0 mi West 16.1 mph - N/A Snow Light Snow
4:55 PM 5.0 °F -13.6 °F -4.0 °F 66% 30.34 in 9.0 mi West 16.1 mph - N/A Snow Light Snow
5:15 PM 5.0 °F -13.0 °F -5.8 °F 61% 30.34 in 9.0 mi West 15.0 mph - N/A   Partly Cloudy
5:35 PM 3.2 °F -13.1 °F -4.0 °F 72% 30.34 in 5.0 mi West 11.5 mph - N/A Snow Light Snow
5:55 PM 3.2 °F -12.2 °F -4.0 °F 72% 30.34 in 7.0 mi West 10.4 mph - N/A   Mostly Cloudy
6:15 PM 1.4 °F -14.5 °F -5.8 °F 72% 30.33 in 10.0 mi West 10.4 mph - N/A   Mostly Cloudy
6:35 PM -0.4 °F -15.7 °F -7.6 °F 72% 30.33 in 10.0 mi West 9.2 mph - N/A   Mostly Cloudy
6:55 PM -0.4 °F -14.7 °F -7.6 °F 72% 30.33 in 10.0 mi West 8.1 mph - N/A   Scattered Clouds
7:15 PM -2.2 °F -16.8 °F -9.4 °F 71% 30.33 in 10.0 mi West 8.1 mph - N/A   Clear
7:35 PM -2.2 °F -19.9 °F -9.4 °F 71% 30.33 in 10.0 mi West 11.5 mph - N/A   Partly Cloudy
7:55 PM -2.2 °F -18.0 °F -11.2 °F 66% 30.32 in 10.0 mi West 9.2 mph - N/A   Scattered Clouds
8:15 PM -2.2 °F -19.9 °F -11.2 °F 66% 30.32 in 10.0 mi West 11.5 mph - N/A   Partly Cloudy
8:35 PM -2.2 °F -20.7 °F -11.2 °F 66% 30.32 in 10.0 mi West 12.7 mph - N/A   Clear
8:55 PM -2.2 °F -20.7 °F -11.2 °F 66% 30.32 in 10.0 mi West 12.7 mph - N/A   Clear
9:15 PM -2.2 °F -20.7 °F -11.2 °F 66% 30.31 in 10.0 mi West 12.7 mph - N/A   Clear
9:35 PM -2.2 °F -19.9 °F -11.2 °F 66% 30.32 in 10.0 mi West 11.5 mph - N/A   Mostly Cloudy
9:55 PM -4.0 °F -22.1 °F -11.2 °F 71% 30.31 in 10.0 mi West 11.5 mph - N/A   Overcast
10:15 PM -4.0 °F -22.1 °F -11.2 °F 71% 30.31 in 10.0 mi West 11.5 mph - N/A   Scattered Clouds
10:35 PM -5.8 °F -23.4 °F -13.0 °F 71% 30.31 in 10.0 mi West 10.4 mph - N/A   Clear
10:55 PM -5.8 °F -23.4 °F -13.0 °F 71% 30.31 in 10.0 mi West 10.4 mph - N/A   Clear
11:15 PM -5.8 °F -23.4 °F -13.0 °F 71% 30.31 in 10.0 mi West 10.4 mph - N/A   Clear
11:35 PM -5.8 °F -21.2 °F -13.0 °F 71% 30.31 in 10.0 mi WSW 8.1 mph - N/A   Clear
11:55 PM -5.8 °F -19.9 °F -13.0 °F 71% 30.30 in 10.0 mi WSW 6.9 mph - N/A   Clear